Weather in Nikopol

Ukraine / Dnipropetrovsk Region     47˚34′02″N   34˚23′41″E
temp.,
°C
wind,
m/s
gust,
m/s
humid.,
%
clouds,
%
prec.,
mm/h
press.,
hPa
HPBL,
m
3 december, thu
thu323:00+4˚e6778100 0.0 1027532
02:00+4˚e688495 0.0 1026441
05:00+3˚e6883100 0.0 1026429
08:00+3˚ese6885100 0.0 1026396
11:00+5˚ese797883 0.0 1026446
14:00+6˚ese567341 0.0 1025567
17:00+5˚ese687850 0.0 1025422
20:00+3˚ese6108537 0.0 1025362
4 december, fri
fri423:00+3˚ese698934 0.0 1025342
02:00+3˚ese7109147 0.0 1026343
05:00+3˚ese7108897 0.0 1025392
08:00+2˚ese7108991 0.0 1026450
11:00+4˚e798067 0.0 1025540
14:00+6˚e697449 0.0 1025573
17:00+5˚e8128125 0.0 1025553
20:00+3˚ese8128413 0.0 1026529
5 december, sat
sat523:00+3˚e7128610 0.0 1026501
02:00+3˚e711878 0.0 1027479
05:00+3˚e8128514 0.0 1027507
08:00+2˚e8118012 0.0 1028485
11:00+2˚e89753 0.0 1028565
14:00+4˚e796913 0.0 1028701
17:00+4˚e811700 0.0 1028648
20:00+2˚e812650 0.0 1029626
6 december, sun
sun623:00+1˚e913560 0.0 1030556
02:00e913550 0.0 1031520
05:00e1013540 0.0 1030522
08:00e1014530 0.0 1031538
11:00+1˚e1013470 0.0 1031589
14:00+2˚e1013420 0.0 1030723
17:00+1˚e1014460 0.0 1030688
20:00e1014530 0.0 1031635
7 december, mon
mon723:00−1˚e1014620 0.0 1031615
02:00−2˚e1014620 0.0 1031616
05:00−2˚e1014620 0.0 1030610
08:00−2˚e1014700 0.0 1030726
11:00−1˚e11146959 0.0 1030820
14:00+1˚e9126479 0.0 1029935
17:00e10156712 0.0 1030753
20:00−1˚e1016686 0.0 1030675